Waukesha, WI

7:47 PM CDT on August 21, 2017 (GMT -0500)
Waukesha County

Weather History for KUES - June, 2013

Change the Weather History Date:

Sunday, June 16, 2013

  Actual Average Record
Temperature  
Mean Temperature 71 °F -  
Max Temperature 80 °F 76 °F 92 °F (1952)
Min Temperature 62 °F 55 °F 41 °F (1964)
Cooling Degree Days 6    
Growing Degree Days 21 (Base 50)    
Moisture  
Dew Point 59 °F    
Average Humidity 75    
Maximum Humidity 100    
Minimum Humidity 37    
Precipitation  
Precipitation 0.00 in - - ()
Sea Level Pressure  
Sea Level Pressure 29.89 in    
Wind  
Wind Speed 8 mph (West)    
Max Wind Speed 13 mph    
Max Gust Speed 18 mph    
Visibility 10 miles    
Events      
Averages and records for this station are not official NWS values.
T = Trace of Precipitation, MM = Missing Value Source: NWS Daily Summary

Daily Weather History Graph

Daily Weather History Graph

Search for Another Location

Airport or City:

Trip Planner

Search our weather history database for the weather conditions in past years. The results will help you decide how hot, cold, wet, or windy it might be!

Date:

Astronomy

Jun. 16, 2013 Rise Set
Actual Time 5:13 AM CDT 8:34 PM CDT
Civil Twilight 4:37 AM CDT 9:09 PM CDT
Nautical Twilight 3:51 AM CDT 9:55 PM CDT
Astronomical Twilight 2:54 AM CDT 10:53 PM CDT
Moon 1:00 PM CDT (6/16) 12:28 AM CDT (6/16)
Length of Visible Light 16h 32m
Length of Day
15h 21m
Waxing Crescent, 50% of the Moon is Illuminated
Jun 16
Waxing Crescent
Jun 16
First Quarter
Jun 23
Full
Jun 29
Last Quarter
Jul 8
New

Hourly Weather History & Observations

Time (CDT) Temp. Dew Point Humidity Pressure Visibility Wind Dir Wind Speed Gust Speed Precip Events Conditions
12:15 AM 64.4 °F 62.6 °F 94% 29.87 in 10.0 mi West 6.9 mph - N/A   Scattered Clouds
12:35 AM 64.4 °F 62.6 °F 94% 29.87 in 10.0 mi West 9.2 mph - N/A   Scattered Clouds
12:55 AM 64.4 °F 62.6 °F 94% 29.86 in 10.0 mi WNW 10.4 mph - N/A   Scattered Clouds
1:15 AM 64.4 °F 62.6 °F 94% 29.86 in 10.0 mi West 10.4 mph - N/A   Clear
1:35 AM 64.4 °F 62.6 °F 94% 29.85 in 10.0 mi West 11.5 mph - N/A   Clear
1:55 AM 64.4 °F 64.4 °F 100% 29.85 in 10.0 mi West 9.2 mph - N/A   Clear
2:15 AM 64.4 °F 64.4 °F 100% 29.86 in 10.0 mi West 5.8 mph - N/A   Clear
2:35 AM 64.4 °F 64.4 °F 100% 29.86 in 7.0 mi WSW 5.8 mph - N/A   Clear
2:55 AM 66.2 °F 64.4 °F 94% 29.87 in 10.0 mi SW 8.1 mph - N/A   Clear
3:15 AM 64.4 °F 64.4 °F 100% 29.87 in 10.0 mi WSW 9.2 mph - N/A   Scattered Clouds
3:35 AM 64.4 °F 64.4 °F 100% 29.87 in 10.0 mi WSW 8.1 mph - N/A   Mostly Cloudy
3:55 AM 64.4 °F 62.6 °F 94% 29.86 in 10.0 mi WSW 9.2 mph - N/A   Mostly Cloudy
4:15 AM 64.4 °F 62.6 °F 94% 29.87 in 10.0 mi WSW 6.9 mph - N/A   Mostly Cloudy
4:35 AM 64.4 °F 62.6 °F 94% 29.87 in 10.0 mi WSW 8.1 mph - N/A   Mostly Cloudy
4:55 AM 64.4 °F 62.6 °F 94% 29.88 in 10.0 mi WSW 6.9 mph - N/A   Scattered Clouds
5:15 AM 64.4 °F 62.6 °F 94% 29.88 in 10.0 mi WSW 6.9 mph - N/A   Clear
5:35 AM 64.4 °F 62.6 °F 94% 29.89 in 10.0 mi West 6.9 mph - N/A   Clear
5:45 AM 64.4 °F 64.4 °F 100% 29.89 in 10.0 mi West 6.9 mph - N/A   Clear
6:45 AM 66.2 °F 64.4 °F 94% 29.90 in 10.0 mi West 6.9 mph - N/A   Clear
7:45 AM 68.0 °F 62.6 °F 83% 29.91 in 10.0 mi West 6.9 mph - N/A   Clear
8:45 AM 69.8 °F 62.6 °F 78% 29.91 in 10.0 mi West 6.9 mph - N/A   Clear
9:45 AM 71.6 °F 64.4 °F 78% 29.91 in 10.0 mi WNW 9.2 mph - N/A   Clear
10:45 AM 75.2 °F 60.8 °F 61% 29.91 in 10.0 mi WNW 9.2 mph - N/A   Scattered Clouds
11:45 AM 75.2 °F 57.2 °F 53% 29.91 in 10.0 mi WNW 9.2 mph - N/A   Scattered Clouds
12:45 PM 78.8 °F 57.2 °F 47% 29.92 in 10.0 mi West 10.4 mph 16.1 mph N/A   Scattered Clouds
1:45 PM 78.8 °F 51.8 °F 39% 29.91 in 10.0 mi WNW 12.7 mph 18.4 mph N/A   Scattered Clouds
2:45 PM 80.6 °F 51.8 °F 37% 29.91 in 10.0 mi West 11.5 mph 17.3 mph N/A   Scattered Clouds
4:45 PM 80.6 °F 51.8 °F 37% 29.91 in 10.0 mi West 11.5 mph - N/A   Scattered Clouds
5:45 PM 80.6 °F 51.8 °F 37% 29.90 in 10.0 mi West 11.5 mph - N/A   Scattered Clouds
6:45 PM 78.8 °F 51.8 °F 39% 29.90 in 10.0 mi WNW 9.2 mph - N/A   Scattered Clouds
7:45 PM 75.2 °F 53.6 °F 47% 29.90 in 10.0 mi WNW 6.9 mph - N/A   Scattered Clouds
8:45 PM 69.8 °F 53.6 °F 56% 29.90 in 10.0 mi West 5.8 mph - N/A   Scattered Clouds
9:15 PM 68.0 °F 53.6 °F 60% 29.90 in 10.0 mi Calm Calm - N/A   Clear
9:35 PM 66.2 °F 53.6 °F 64% 29.91 in 10.0 mi Calm Calm - N/A   Clear
9:55 PM 62.6 °F 53.6 °F 72% 29.92 in 10.0 mi WSW 3.5 mph - N/A   Clear
10:15 PM 64.4 °F 53.6 °F 68% 29.93 in 10.0 mi West 5.8 mph - N/A   Clear
10:35 PM 66.2 °F 51.8 °F 60% 29.93 in 10.0 mi WSW 5.8 mph - N/A   Clear
10:55 PM 66.2 °F 51.8 °F 60% 29.93 in 10.0 mi WSW 3.5 mph - N/A   Clear
11:15 PM 64.4 °F 51.8 °F 64% 29.93 in 10.0 mi WSW 3.5 mph - N/A   Clear
11:35 PM 64.4 °F 51.8 °F 64% 29.92 in 10.0 mi WSW 3.5 mph - N/A   Clear
11:55 PM 62.6 °F 51.8 °F 68% 29.92 in 10.0 mi Calm Calm - N/A   Clear